Location: Bathurst
(33.4193°S, 149.5775°E)
Time: 14:29:19
(UTC+11:00)

Envisat - Pass Details

Date: 28 January 2021
Orbit: 764 x 766 km, 98.1° (Epoch: 07 March)

Event Time Altitude Azimuth Distance (km) Brightness Sun altitude
Rises 05:43:04 0° 23° (NNE) 3,217 6.2 -7.8°
Reaches altitude 10° 05:45:22 10° 26° (NNE) 2,298 5.5 -7.4°
Maximum altitude 05:50:21 60° 105° (ESE) 878 3.7 -6.4°
Drops below altitude 10° 05:55:24 10° 184° (S) 2,328 5.8 -5.5°
Sets 05:57:45 0° 187° (S) 3,261 6.5 -5.1°
